Trenton, NJ

9:45 AM EST on November 22, 2019 (GMT -0500)
Trenton Mercer

Weather History for KTTN - October, 2019

Change the Weather History Date:

Monday, October 21, 2019

  Actual Average Record
Temperature  
Mean Temperature 58 °F 53 °F  
Max Temperature 68 °F 63 °F 85 °F (1947)
Min Temperature 48 °F 42 °F 28 °F (1952)
Degree Days  
Heating Degree Days 7 12  
Month to date heating degree days 161 194  
Since 1 July heating degree days 179 259  
Cooling Degree Days 0 0  
Month to date cooling degree days 26 7  
Year to date cooling degree days 1163 962  
Growing Degree Days 8 (Base 50)    
Moisture  
Dew Point 48 °F    
Average Humidity 77    
Maximum Humidity 100    
Minimum Humidity 40    
Precipitation  
Precipitation 0.00 in 0.14 in 2.05 in (1904)
Month to date precipitation 2.75 2.86  
Year to date precipitation 41.41 38.11  
Sea Level Pressure  
Sea Level Pressure 30.04 in    
Wind  
Wind Speed 7 mph ()    
Max Wind Speed 15 mph    
Max Gust Speed 21 mph    
Visibility 10.0 miles    
Events      
T = Trace of Precipitation, MM = Missing Value Source: Averaged Metar Reports

Daily Weather History Graph

Daily Weather History Graph

Search for Another Location

Airport or City:

Astronomy

Oct. 21, 2019 Rise Set
Actual Time 7:16 AM EDT 6:10 PM EDT
Civil Twilight 6:48 AM EDT 6:38 PM EDT
Nautical Twilight 6:16 AM EDT 7:10 PM EDT
Astronomical Twilight 5:45 AM EDT 7:41 PM EDT
Moon No Moon Rise 2:32 PM EDT (10/21)
Length of Visible Light 11h 50m
Length of Day
10h 54m
Waning Gibbous, 48% of the Moon is Illuminated
Oct 21
Waning Gibbous
Oct 27
New
Nov 4
First Quarter
Nov 12
Full
Nov 19
Last Quarter

Hourly Weather History & Observations

Time (EDT) Temp. Dew Point Humidity Pressure Visibility Wind Dir Wind Speed Gust Speed Precip Events Conditions
12:53 AM 52.0 °F 51.1 °F 97% 29.94 in 9.0 mi NNE 10.4 mph - N/A   Overcast
1:26 AM 52.0 °F 50.0 °F 93% 29.95 in 10.0 mi NNE 11.5 mph 19.6 mph N/A   Overcast
1:53 AM 52.0 °F 50.0 °F 93% 29.94 in 10.0 mi North 8.1 mph - N/A   Overcast
2:34 AM 52.0 °F 50.0 °F 93% 29.97 in 10.0 mi North 10.4 mph - N/A   Overcast
2:43 AM 52.0 °F 50.0 °F 93% 29.97 in 10.0 mi North 9.2 mph - N/A   Overcast
2:53 AM 52.0 °F 50.0 °F 93% 29.96 in 10.0 mi North 10.4 mph - N/A   Overcast
3:53 AM 51.1 °F 48.9 °F 92% 29.96 in 10.0 mi North 8.1 mph - N/A   Mostly Cloudy
4:06 AM 50.0 °F 48.0 °F 93% 29.98 in 10.0 mi North 9.2 mph - N/A   Scattered Clouds
4:53 AM 48.9 °F 46.9 °F 93% 29.98 in 10.0 mi North 9.2 mph - N/A   Clear
5:53 AM 48.9 °F 46.9 °F 93% 30.00 in 10.0 mi NNW 8.1 mph - N/A   Clear
6:53 AM 48.0 °F 46.0 °F 93% 30.03 in 10.0 mi NNW 6.9 mph - N/A   Clear
7:53 AM 48.9 °F 46.9 °F 93% 30.03 in 10.0 mi North 5.8 mph - N/A   Clear
8:53 AM 53.1 °F 46.9 °F 80% 30.05 in 10.0 mi North 8.1 mph - N/A   Clear
9:53 AM 57.9 °F 48.0 °F 70% 30.04 in 10.0 mi NE 11.5 mph 17.3 mph N/A   Clear
10:53 AM 60.1 °F 46.9 °F 62% 30.06 in 10.0 mi NNE 6.9 mph - N/A   Clear
11:53 AM 63.0 °F 46.0 °F 54% 30.06 in 10.0 mi NNE 8.1 mph - N/A   Clear
12:53 PM 64.0 °F 44.1 °F 48% 30.05 in 10.0 mi NNE 8.1 mph - N/A   Clear
1:53 PM 66.0 °F 44.1 °F 45% 30.03 in 10.0 mi East 9.2 mph - N/A   Clear
3:53 PM 66.9 °F 42.1 °F 40% 30.04 in 10.0 mi ESE 8.1 mph - N/A   Clear
4:53 PM 66.0 °F 44.1 °F 45% 30.05 in 10.0 mi East 9.2 mph - N/A   Clear
5:53 PM 62.1 °F 45.0 °F 53% 30.06 in 10.0 mi East 5.8 mph - N/A   Clear
6:53 PM 57.9 °F 46.9 °F 67% 30.05 in 10.0 mi East 5.8 mph - N/A   Clear
7:53 PM 57.0 °F 48.0 °F 72% 30.08 in 10.0 mi Calm Calm - N/A   Mostly Cloudy
8:06 PM 57.0 °F 48.0 °F 72% 30.11 in 10.0 mi Calm Calm - N/A   Mostly Cloudy
8:30 PM 57.9 °F 50.0 °F 75% 30.11 in 10.0 mi SE 3.5 mph - N/A   Overcast
8:44 PM 57.9 °F 50.0 °F 75% 30.11 in 10.0 mi SSE 3.5 mph - N/A   Overcast
8:53 PM 57.9 °F 50.0 °F 75% 30.09 in 10.0 mi ESE 3.5 mph - N/A   Overcast
9:51 PM 57.2 °F 50.0 °F 77% 30.11 in 10.0 mi SSE 4.6 mph - N/A   Scattered Clouds
9:53 PM 57.0 °F 50.0 °F 77% 30.09 in 10.0 mi SSE 4.6 mph - N/A   Scattered Clouds
10:06 PM 55.9 °F 48.9 °F 77% 30.11 in 10.0 mi South 4.6 mph - N/A   Mostly Cloudy
10:41 PM 55.0 °F 50.0 °F 83% 30.11 in 10.0 mi Calm Calm - N/A   Mostly Cloudy
10:53 PM 55.9 °F 50.0 °F 80% 30.10 in 10.0 mi Calm Calm - N/A   Overcast
11:53 PM 55.0 °F 50.0 °F 83% 30.09 in 10.0 mi Calm Calm - N/A   Mostly Cloudy